GEFSGL_500_meanwind_306.txt.gz
Wind_Speed
19 19 19 19 19 19 19 19 19 19 18 18 18 18 18 18 18 19 19 19 19 19 19 19 19 19 19 19 20 20 19 20 19 19 20 20 20 20 20 19 20 19 19
20 20 19 19 19 19 19 19 19 19 19 19 20 20 19 19 19 19 20 20 19 20 19 19 19 20 20 20 20 20 20 20 20 20 21 21 21 20 21 21 21 21 21
21 21 20 20 20 20 20 19 19 20 20 20 20 20 20 19 20 20 20 19 20 20 20 20 20 20 21 21 21 22 22 22 22 21 21 21 21 21 21 21 22 22 21
22 22 22 21 21 21 20 20 21 21 20 21 20 20 19 20 20 20 20 19 19 20 20 20 20 21 21 22 22 22 23 23 22 22 22 22 22 22 22 23 23 23 22
22 23 23 22 22 22 22 21 21 21 21 21 20 20 20 20 20 20 20 19 19 20 20 20 21 21 21 22 22 22 22 23 23 23 23 22 22 23 23 23 23 23 24
22 22 23 23 23 23 23 22 22 22 22 22 21 21 20 20 20 20 20 19 20 20 21 21 21 21 20 21 21 22 22 22 22 23 24 23 23 23 23 23 23 24 24
23 23 23 23 23 23 23 23 23 22 22 22 22 21 21 21 20 20 20 20 20 21 21 20 21 21 21 21 21 22 22 23 22 23 24 24 24 25 25 25 24 24 23
23 23 24 24 24 24 24 24 25 24 23 23 23 23 22 21 21 21 21 21 21 21 21 21 21 21 21 21 21 22 22 23 23 23 23 24 25 25 26 25 25 24 24
23 23 23 23 23 23 23 24 24 24 24 23 23 23 23 23 23 23 23 22 22 22 22 22 22 22 21 21 22 22 23 23 24 24 24 24 25 25 25 26 26 26 25
24 24 23 23 23 23 23 24 24 24 25 24 23 23 22 22 23 24 24 23 23 22 23 23 23 22 22 22 22 23 23 23 24 25 26 26 26 26 26 26 27 28 27
25 24 24 24 24 24 24 24 24 24 24 24 24 24 24 24 24 25 25 24 24 24 25 25 24 23 23 23 23 24 24 24 25 26 27 28 28 27 27 28 28 28 29
24 24 24 24 24 24 24 24 25 25 25 25 25 25 25 25 25 25 26 25 25 25 25 25 25 25 24 24 25 25 26 26 26 27 28 29 29 28 28 28 29 29 29
25 24 24 24 24 24 24 25 25 26 26 25 25 25 26 26 26 26 26 26 26 26 26 26 26 26 25 26 26 26 27 27 27 28 28 29 30 30 29 29 30 31 31
25 25 24 24 24 25 24 25 25 26 26 25 26 26 26 27 27 27 27 28 28 27 27 27 27 27 27 27 28 28 28 28 28 29 29 30 30 31 31 31 32 32 33
26 26 26 26 25 25 25 25 25 25 26 26 26 27 27 27 28 28 29 29 29 29 29 28 29 29 29 29 30 30 29 29 30 30 30 30 31 32 33 33 33 34 35
27 26 26 26 26 26 26 26 26 27 27 27 27 27 27 27 27 28 29 29 29 29 29 29 30 30 30 30 31 31 30 30 31 31 31 32 33 34 35 35 35 35 35
26 26 26 26 27 27 27 27 28 28 28 27 28 28 28 28 28 28 29 29 29 29 29 29 30 30 31 31 31 32 32 32 32 33 33 33 34 35 35 35 35 36 36
26 26 26 26 27 27 27 27 28 28 28 28 29 29 29 29 29 29 29 29 29 29 30 30 30 30 31 32 32 32 33 33 33 34 34 34 35 35 36 36 36 36 36
26 26 26 27 27 27 27 28 28 28 29 29 29 30 30 30 30 29 29 29 29 29 29 30 31 32 32 32 33 33 34 34 35 36 36 36 35 35 35 36 36 36 36
26 26 26 27 27 28 28 28 28 29 29 30 30 30 31 31 30 30 30 30 30 30 30 30 31 31 33 33 34 34 34 34 35 36 36 37 37 36 36 36 37 37 37
27 27 28 28 28 28 29 29 29 29 30 30 30 31 31 31 31 31 31 30 30 31 31 31 31 32 32 33 34 34 35 35 35 36 36 37 37 37 37 37 37 38 38
28 29 29 29 29 29 29 29 29 30 30 31 31 30 31 31 31 31 31 31 32 32 32 32 32 32 33 33 34 35 35 35 35 36 36 37 38 38 38 38 38 39 40
29 29 29 30 30 29 29 29 29 29 30 30 30 30 30 30 30 30 30 31 32 32 32 32 32 32 33 34 34 34 34 35 36 36 37 37 38 38 38 38 38 39 39
29 29 29 29 29 29 29 29 29 30 29 29 30 30 30 30 29 29 30 30 31 31 32 32 32 32 32 33 34 35 35 35 36 37 38 38 37 38 38 38 37 38 37
28 28 29 28 28 28 29 28 28 29 29 29 29 30 30 30 30 30 30 31 31 31 31 32 32 32 33 33 34 34 35 35 36 36 36 36 36 37 37 37 37 37 36
28 28 28 29 29 29 29 28 29 29 29 28 28 28 29 29 29 30 31 31 32 32 32 32 32 33 33 34 34 34 34 35 35 35 35 36 36 36 36 36 36 36 36

GEFSGL_500_meanwind_312.txt.gz
Wind_Speed
19 19 19 19 19 19 20 20 19 19 19 19 19 19 18 18 18 18 18 18 18 18 18 18 18 18 18 18 19 19 20 20 20 20 20 20 19 20 20 21 21 20 21
19 20 20 20 20 20 20 20 19 18 18 18 18 18 18 18 19 19 18 18 18 18 18 18 18 19 19 19 19 20 21 21 21 21 22 22 21 21 22 22 22 21 21
20 20 21 21 21 21 21 20 20 20 19 19 19 19 19 19 19 18 19 19 19 18 18 18 18 19 19 19 20 20 21 21 22 22 22 22 22 23 23 23 23 22 21
20 21 21 21 22 22 21 21 20 20 20 20 19 19 19 19 19 19 19 19 20 19 18 19 19 19 20 20 20 20 21 21 22 22 22 22 23 23 23 23 23 23 22
21 21 21 21 22 22 21 21 21 21 21 20 20 20 20 20 20 19 19 19 20 20 20 20 20 20 20 20 20 20 21 21 21 22 22 23 23 23 24 24 24 24 24
22 22 22 21 21 21 22 21 21 21 21 21 21 21 20 20 20 20 20 20 21 21 21 20 20 20 20 20 21 21 21 21 21 21 22 22 23 23 24 25 25 24 24
22 23 23 22 22 22 22 22 22 22 22 22 22 21 21 21 21 21 21 21 21 21 21 22 21 21 21 21 21 21 21 21 22 22 22 22 23 24 24 24 24 24 24
23 23 23 23 22 22 22 22 23 23 23 22 23 23 22 22 22 22 22 22 22 22 22 22 22 22 21 21 21 21 21 21 22 23 23 23 23 24 24 25 25 25 25
23 23 23 23 23 23 23 23 23 23 23 23 23 24 24 23 23 22 22 22 22 23 23 22 22 22 21 21 22 22 22 22 22 23 23 24 25 25 25 26 26 26 26
23 23 23 23 23 23 23 23 23 23 23 24 24 24 25 24 24 23 23 23 23 23 23 24 23 23 22 22 23 23 23 23 23 23 23 24 25 26 26 26 26 27 27
24 24 24 24 24 24 24 23 23 23 23 23 24 24 25 25 25 25 24 24 24 24 24 24 24 24 24 24 24 23 23 23 23 23 23 24 25 26 26 27 27 27 27
24 25 24 25 25 24 24 24 24 24 24 23 24 25 24 24 25 25 26 25 25 25 25 25 25 25 25 25 25 25 25 25 24 25 24 24 25 25 25 26 27 27 28
25 25 25 25 25 25 24 24 25 25 25 25 25 26 25 25 25 25 26 26 26 26 26 26 26 27 26 27 27 26 27 27 26 26 26 26 26 26 27 27 28 28 29
26 25 26 26 25 25 25 25 25 25 25 25 25 26 26 26 26 26 27 27 27 27 27 27 27 28 28 28 28 28 28 28 28 28 28 28 28 28 29 29 29 30 31
27 26 26 26 26 26 26 26 26 26 26 26 27 27 27 27 28 28 28 28 27 28 28 28 28 28 29 29 29 30 30 30 30 30 29 29 29 30 30 31 31 32 32
27 27 27 27 27 27 26 27 27 27 27 27 28 28 28 28 28 28 28 28 28 28 28 29 29 29 29 30 30 30 30 30 31 31 31 31 31 31 32 32 33 33 33
28 28 28 28 29 28 28 28 28 28 28 28 28 28 28 28 28 28 28 28 28 28 28 28 29 29 29 30 30 31 31 31 31 32 32 32 32 32 33 33 34 34 34
27 28 29 29 29 29 29 29 29 30 29 28 29 29 29 29 29 29 29 29 28 28 28 28 29 29 29 30 31 31 31 31 32 32 33 33 33 33 33 34 34 35 34
29 30 30 30 30 30 30 29 30 30 29 29 29 30 29 29 29 29 29 29 29 29 29 29 30 30 30 30 31 32 32 32 33 33 34 34 34 34 35 35 35 36 36
30 30 30 30 30 30 29 29 30 30 29 29 29 30 30 30 30 30 30 30 30 30 30 30 30 30 30 30 31 32 32 33 33 33 34 34 34 35 35 35 35 35 36
31 31 31 30 30 30 30 30 30 30 30 30 30 30 30 30 30 30 30 30 30 30 30 30 30 30 31 30 31 31 31 32 33 33 34 34 34 35 35 35 35 36 36
30 30 30 31 31 30 30 31 31 30 30 30 30 31 30 29 29 29 29 29 29 30 30 30 30 30 30 31 31 31 31 31 32 32 33 34 34 35 35 36 36 36 36
30 29 29 29 30 30 29 29 29 29 30 30 30 29 29 29 29 29 29 30 30 30 30 31 31 31 31 31 31 31 31 31 32 32 32 33 34 34 35 36 37 37 37
29 28 28 28 28 28 27 27 27 28 28 28 28 28 29 29 29 28 28 29 29 30 31 32 32 31 31 31 31 31 32 32 33 33 33 34 34 35 36 36 37 38 38
30 29 29 28 28 27 27 26 26 27 28 28 28 28 28 28 28 28 28 29 29 30 31 31 31 30 30 30 31 31 32 33 33 33 33 34 34 34 35 36 37 37 38
30 30 29 29 29 28 28 27 28 28 28 29 29 29 29 29 29 29 29 29 30 30 30 30 30 30 30 30 31 32 32 33 33 34 34 34 33 34 34 35 36 36 37

GEFSGL_500_meanwind_318.txt.gz
Wind_Speed
17 18 18 18 19 19 19 19 19 19 19 19 19 19 18 18 18 17 17 18 17 17 17 18 18 18 18 18 18 18 18 18 18 18 18 18 19 19 19 19 19 18 18
18 18 18 18 19 19 19 19 19 20 20 20 19 19 18 18 18 18 17 18 18 18 18 18 18 18 18 18 19 19 19 19 18 18 19 19 19 20 20 20 20 20 20
18 18 19 19 19 20 20 20 20 21 20 20 19 19 19 19 19 19 18 18 18 19 19 19 19 19 19 19 19 19 20 19 19 19 19 20 20 20 20 20 20 20 20
19 20 20 20 20 20 20 21 22 21 21 20 20 20 20 19 19 19 19 19 19 20 20 20 20 19 19 19 19 19 20 20 20 19 20 20 20 20 20 20 20 20 20
21 21 21 21 21 21 21 22 22 22 21 21 21 21 21 20 20 20 21 21 21 21 21 20 20 20 20 20 20 20 20 20 20 21 21 21 20 20 20 21 20 21 21
22 22 22 22 22 22 23 23 23 23 23 22 22 22 21 21 21 21 21 22 22 22 22 21 21 21 21 21 21 21 21 21 21 21 21 21 21 22 22 22 21 21 21
22 23 23 23 23 23 23 23 23 23 23 22 22 22 22 21 21 22 22 22 22 22 22 22 22 21 21 21 21 21 22 22 22 22 22 22 22 22 23 23 23 23 23
23 24 23 23 23 23 24 24 24 23 23 23 23 22 22 22 22 22 22 22 22 22 22 21 21 21 22 22 22 22 22 22 22 23 22 22 22 22 23 23 24 24 24
24 24 24 24 24 24 24 24 24 24 25 24 24 23 23 23 23 23 23 23 23 22 22 21 21 22 22 23 23 23 23 23 23 23 23 23 23 24 24 24 24 24 24
24 24 25 25 25 25 24 25 25 25 26 25 25 25 24 24 23 23 24 23 23 23 23 23 23 23 23 23 23 24 24 23 24 24 23 23 24 24 25 25 24 25 25
25 25 25 25 26 26 26 26 25 25 25 25 25 25 25 25 25 25 24 24 24 24 24 24 24 24 24 25 25 25 25 25 25 25 25 24 25 25 25 25 25 25 26
26 26 26 26 26 26 26 26 26 26 26 25 25 25 25 26 26 26 26 25 26 26 25 25 25 25 26 26 26 26 26 26 25 25 25 25 26 26 26 26 26 27 27
26 27 27 27 27 26 26 26 26 26 25 25 25 25 25 26 26 26 27 27 27 27 26 26 26 26 26 27 27 27 27 27 27 27 27 26 26 26 27 27 27 28 28
28 28 28 27 27 27 27 26 26 26 25 25 25 26 26 25 26 26 27 27 28 27 27 27 27 26 26 27 28 28 28 28 27 27 27 27 27 27 27 27 27 28 28
29 29 29 28 28 28 28 27 27 27 27 27 27 27 27 27 27 27 27 27 27 28 28 27 27 27 27 27 28 28 28 28 27 27 27 27 26 27 27 28 28 29 29
30 30 30 29 29 28 28 28 27 27 28 28 27 28 28 28 28 28 28 27 27 28 29 28 28 28 28 28 28 28 28 28 28 28 28 28 28 28 28 28 28 29 29
31 30 30 29 28 28 28 28 28 28 28 28 29 29 29 29 30 29 29 30 29 29 29 29 29 29 29 29 29 29 28 28 28 28 28 28 29 29 29 30 30 30 30
30 30 30 30 29 29 29 29 30 30 30 30 30 30 30 30 30 31 31 30 30 30 29 30 30 30 30 29 29 29 28 28 28 28 29 29 30 30 31 31 31 31 32
31 31 31 31 31 31 31 31 31 31 31 31 31 32 31 31 31 31 31 31 30 30 30 30 30 30 30 30 30 30 29 29 29 29 30 30 31 31 32 32 33 33 33
32 32 32 32 32 32 32 32 32 32 33 32 32 31 31 31 31 31 31 31 31 31 30 30 30 30 30 30 30 30 30 30 30 30 31 32 32 32 33 33 34 34 34
34 33 33 33 33 33 33 33 33 32 32 32 32 32 31 31 31 31 31 32 32 31 30 29 30 30 30 30 30 31 31 31 31 31 31 31 32 33 34 34 34 35 36
35 34 33 33 33 33 33 33 32 32 32 32 32 32 32 31 31 31 31 32 31 30 29 29 30 30 30 30 30 31 31 32 31 31 31 31 32 33 34 34 35 35 35
35 34 33 33 33 32 32 32 32 32 32 31 31 31 31 31 30 30 30 30 29 29 30 30 30 30 30 31 31 31 31 31 31 31 31 32 33 33 33 33 34 35 35
33 33 33 33 33 32 32 33 32 32 32 31 30 30 30 30 30 29 29 28 28 29 29 30 30 31 31 31 31 31 31 31 31 31 32 32 32 33 33 33 34 34 35
32 32 32 31 32 32 32 32 32 32 32 31 31 31 30 30 30 30 29 29 29 30 30 30 31 31 30 30 30 30 30 30 31 31 32 32 32 32 32 33 33 34 34
31 31 31 31 32 32 33 32 32 32 32 32 32 32 31 31 31 31 30 30 30 31 30 31 31 31 30 30 30 31 31 31 31 31 32 32 32 32 32 33 33 34 35

GEFSGL_500_meanwind_324.txt.gz
Wind_Speed
15 15 15 15 15 15 15 16 16 17 17 17 17 17 17 16 16 16 16 16 16 16 15 15 15 15 15 16 16 16 16 16 16 16 16 16 15 16 17 17 16 16 16
16 16 16 16 16 16 16 16 17 17 17 18 17 18 17 17 17 17 16 17 16 16 16 16 16 16 16 16 17 17 17 17 17 17 17 17 16 16 17 17 18 18 18
17 17 17 17 17 17 18 18 18 18 18 18 17 18 18 17 17 17 17 17 17 17 17 17 17 18 18 18 18 18 18 18 18 18 18 19 18 18 18 18 18 18 18
18 18 18 18 18 18 19 19 19 19 19 19 18 18 18 18 18 18 18 18 18 18 18 18 19 19 19 18 18 18 18 19 19 19 19 19 19 19 19 18 19 19 19
19 19 19 18 19 19 20 20 21 21 20 19 18 18 19 19 18 18 19 19 19 19 20 19 19 19 19 19 19 19 19 19 19 20 20 20 20 20 20 20 20 20 20
20 20 20 19 19 20 20 20 21 21 20 20 19 20 20 20 20 20 20 20 20 20 20 20 21 20 20 20 20 19 20 20 20 20 20 20 21 21 21 21 21 21 21
21 21 21 21 21 21 21 21 22 22 21 21 21 21 21 21 22 22 21 21 21 21 21 21 21 21 21 21 20 20 20 20 20 20 20 21 21 22 22 22 22 22 22
22 22 22 22 22 22 22 22 22 22 22 22 22 22 22 22 23 24 23 22 22 22 21 21 21 20 21 21 21 21 20 20 20 21 21 22 22 23 23 23 23 23 23
22 23 23 24 24 24 23 23 23 22 22 23 23 23 23 23 24 25 25 25 24 23 23 22 22 22 22 22 22 22 22 22 22 22 22 23 23 24 24 24 24 25 24
23 23 24 24 24 24 24 24 24 24 24 24 24 24 24 24 24 25 26 26 25 25 24 24 23 23 23 23 23 23 23 24 24 24 24 24 25 25 25 25 25 25 26
24 25 25 25 25 25 25 25 26 25 25 25 24 25 25 25 25 25 26 26 26 25 25 24 24 24 24 24 24 24 24 25 25 25 25 25 25 25 26 26 27 27 27
25 26 27 27 26 26 26 26 26 27 26 26 25 25 26 26 26 26 25 26 26 26 26 25 25 25 25 25 25 26 26 26 26 25 25 25 26 26 27 27 27 28 28
26 27 27 27 27 27 27 27 27 27 27 26 26 26 26 26 26 26 25 26 26 26 27 27 27 27 26 25 26 26 26 26 26 26 26 25 26 26 26 27 27 27 27
28 28 28 28 28 28 28 27 27 27 27 27 27 27 26 26 26 27 27 27 27 27 27 27 27 27 26 26 26 27 26 27 27 27 27 27 27 27 27 28 27 27 28
28 28 29 29 29 28 28 28 29 29 29 28 28 28 28 27 27 27 28 28 28 28 28 28 28 28 28 27 28 28 28 28 28 28 28 28 28 28 28 28 28 29 29
28 29 29 29 30 29 29 29 30 31 31 30 30 30 29 29 29 29 29 29 29 29 29 29 29 29 29 29 29 29 30 29 29 29 29 29 28 28 29 29 28 29 29
29 29 30 30 30 30 31 31 31 32 32 31 32 31 31 31 31 30 30 30 30 30 30 30 29 29 29 29 29 30 30 31 31 30 30 30 30 30 30 30 30 30 30
31 31 32 32 32 32 32 32 32 32 32 32 32 32 32 32 32 31 31 32 32 31 31 30 30 30 30 30 30 30 30 30 31 31 31 32 31 31 31 31 31 31 31
32 32 33 33 33 33 33 33 33 33 33 33 33 33 33 33 32 32 32 32 32 32 32 32 32 31 31 31 31 31 31 31 31 31 31 32 32 32 32 32 33 32 33
33 34 34 33 34 34 34 34 34 34 34 34 34 33 33 33 33 33 33 33 33 33 33 33 32 32 32 31 31 31 31 31 31 31 32 32 32 32 32 33 33 33 34
34 34 34 34 34 34 34 34 34 34 34 34 34 34 34 34 34 34 33 34 34 34 34 32 32 32 32 32 31 31 31 31 31 31 31 31 31 31 32 32 32 32 33
33 32 33 33 34 33 34 34 34 33 33 33 33 34 34 34 34 33 33 33 33 34 33 32 32 31 31 31 30 30 31 31 30 30 30 30 30 31 31 31 31 31 32
32 32 33 34 34 33 33 32 32 32 32 33 33 33 33 33 33 33 33 33 33 33 32 32 31 31 30 30 31 30 30 30 30 31 31 31 31 31 31 31 32 32 32
34 33 33 33 33 33 33 32 32 32 32 33 33 33 33 33 33 33 33 33 33 33 33 32 31 30 30 30 30 30 30 30 30 31 32 32 32 32 32 32 32 33 33
34 33 32 32 31 31 31 31 31 31 32 32 32 32 33 33 33 33 33 33 33 33 33 32 31 31 30 31 31 31 31 30 30 31 31 32 32 31 31 32 32 32 33
33 32 32 31 31 30 30 31 31 31 31 31 31 32 32 32 32 33 33 33 33 32 32 32 31 31 32 32 31 31 31 31 31 31 32 31 32 32 32 33 33 34 34

GEFSGL_500_meanwind_330.txt.gz
Wind_Speed
15 15 16 16 16 16 16 16 16 16 16 16 16 16 16 16 16 16 16 16 16 16 16 16 15 15 15 15 15 15 15 16 16 16 16 17 17 17 17 17 17 18 18
16 16 17 17 17 17 17 17 17 17 17 16 17 17 18 17 17 17 17 17 17 16 16 16 16 16 16 16 16 16 16 16 16 16 15 15 16 17 17 18 17 18 18
19 18 18 18 18 18 18 18 18 18 18 18 19 18 18 18 18 18 17 17 18 17 17 17 17 17 17 17 17 17 17 17 17 16 16 16 16 17 18 18 18 18 18
20 20 19 19 19 19 19 19 19 19 19 19 19 20 20 19 19 18 18 18 18 18 18 18 18 18 18 18 18 18 18 18 18 17 17 17 17 17 18 19 19 19 19
20 20 20 20 20 20 20 20 20 19 20 20 20 20 20 20 19 19 19 19 19 20 19 19 19 19 19 19 19 18 18 18 18 18 18 18 18 18 18 19 19 20 20
21 21 21 21 21 21 21 21 20 20 20 21 21 21 21 20 20 21 21 21 21 21 21 21 21 21 20 20 20 20 20 20 20 20 19 19 19 20 20 20 20 20 20
22 22 22 21 21 21 21 22 21 21 21 21 22 22 22 22 22 22 22 22 22 22 22 22 22 22 22 22 22 23 22 22 21 21 21 21 21 22 21 21 21 21 21
23 23 24 23 23 22 22 22 22 23 23 23 23 23 23 23 23 23 24 24 24 23 23 23 23 23 24 24 24 24 24 24 23 23 23 23 22 22 23 23 22 22 23
23 23 24 24 24 24 24 24 24 24 24 24 24 24 23 24 24 24 24 24 24 24 24 24 24 24 24 25 26 26 25 25 24 24 25 25 25 24 24 24 24 23 24
24 24 24 25 25 25 24 25 25 25 24 24 24 24 24 25 25 25 25 25 24 24 24 25 25 25 25 25 25 25 24 24 24 24 24 24 25 25 25 25 25 25 25
25 25 25 25 26 26 25 25 25 26 25 25 25 25 25 25 25 25 25 25 25 25 25 25 25 25 24 24 24 24 24 25 25 25 24 25 25 25 25 26 26 26 25
26 27 26 26 26 26 26 26 26 27 27 27 26 26 26 27 27 27 27 27 27 27 26 26 26 26 26 26 26 26 26 26 26 26 26 26 27 27 26 26 27 27 27
27 28 27 27 26 27 27 27 28 28 28 28 28 28 28 28 28 29 29 28 28 27 27 26 27 27 27 27 27 27 27 28 28 28 28 28 28 29 29 29 28 28 28
28 29 29 29 29 29 29 29 29 29 30 30 30 29 29 29 29 30 29 29 29 28 27 27 27 28 28 28 28 28 28 28 29 29 29 30 30 30 30 30 30 30 29
30 30 30 30 30 31 30 30 30 30 31 31 31 31 31 30 30 30 30 30 30 29 29 29 29 29 29 30 30 30 29 29 29 29 30 30 31 31 31 31 31 31 31
30 30 30 30 30 30 31 31 31 32 32 32 32 32 32 32 32 32 32 31 31 31 31 31 31 31 31 31 31 31 31 30 31 31 31 31 31 32 32 32 32 32 32
31 31 31 31 31 31 31 32 32 32 32 33 33 33 33 33 33 32 32 32 33 33 33 33 33 33 33 32 33 33 32 33 33 32 32 32 32 33 33 34 34 34 34
31 31 31 31 31 31 31 31 32 33 33 33 33 34 34 34 34 34 34 34 34 35 35 35 35 34 33 33 34 34 34 35 34 35 34 34 34 34 34 34 34 34 34
31 31 31 31 31 31 32 32 32 33 33 33 33 33 34 34 34 34 35 35 35 35 35 35 34 34 34 34 34 34 35 35 35 35 35 35 35 35 34 34 33 33 34
32 32 32 32 32 33 33 33 33 33 33 33 33 33 33 33 33 34 34 35 35 35 35 34 34 33 33 32 33 34 34 34 34 35 35 35 35 35 34 34 34 33 34
33 33 34 34 33 34 35 35 34 34 34 34 34 34 34 34 34 34 34 34 34 34 34 34 34 33 32 32 32 33 32 32 33 34 34 34 34 34 34 34 34 34 34
33 34 34 34 33 33 34 34 34 34 34 34 35 34 34 34 35 35 34 34 34 33 34 34 35 35 34 33 33 33 33 32 32 32 33 33 33 33 33 34 34 34 34
34 34 35 34 34 34 33 34 35 34 34 34 34 34 34 34 34 35 34 34 35 35 34 35 35 35 34 33 33 34 34 34 33 33 33 33 33 33 33 33 33 33 33
34 34 34 34 34 35 35 35 34 34 34 33 33 33 34 34 34 34 35 35 35 35 35 35 35 35 34 34 34 34 34 33 34 33 33 32 33 33 33 32 32 32 31
34 34 33 33 34 34 35 35 35 34 34 34 34 33 33 33 34 34 34 34 34 34 34 34 34 34 34 34 34 33 33 33 34 34 34 33 33 33 33 32 32 32 32
34 34 34 33 33 33 34 34 34 34 34 34 34 33 33 32 32 33 33 33 33 33 33 34 34 33 33 33 33 33 33 33 33 33 34 34 34 33 32 32 31 32 32

GEFSGL_500_meanwind_336.txt.gz
Wind_Speed
19 18 18 18 18 18 18 18 18 18 17 17 16 16 16 16 16 17 17 17 17 17 16 16 16 17 17 17 17 17 17 17 17 17 17 17 17 17 17 17 17 17 17
20 20 20 20 19 19 18 18 19 18 18 18 18 18 17 17 17 17 17 17 17 17 17 17 17 17 17 18 18 18 17 18 18 17 17 17 16 16 16 17 16 17 17
21 21 21 20 19 19 19 19 20 20 19 19 18 18 18 18 18 18 18 18 18 18 18 18 18 18 18 18 18 18 18 18 18 17 17 17 16 16 17 17 17 17 18
21 21 22 21 20 20 20 20 20 21 21 20 20 19 19 19 19 19 19 19 19 18 18 18 18 19 18 18 18 19 19 19 19 18 18 18 18 17 17 18 18 18 19
22 22 22 23 22 21 21 21 21 21 22 21 21 21 21 21 21 20 20 20 20 19 19 19 20 20 20 20 20 20 20 20 20 20 19 19 19 19 19 19 20 20 20
22 23 24 24 23 23 22 22 22 22 22 22 23 22 22 21 21 21 21 21 21 21 21 21 21 21 21 21 21 21 21 21 21 21 21 20 21 21 21 20 21 21 20
23 23 24 24 24 24 23 23 23 23 23 23 23 23 22 22 22 22 21 21 21 22 22 22 22 22 22 23 23 23 23 22 22 21 21 21 21 22 22 22 21 21 21
22 23 23 23 23 22 22 23 24 25 25 24 24 24 24 23 23 23 22 22 22 22 22 22 22 22 22 23 23 23 23 23 23 23 23 23 23 23 23 23 23 23 22
23 23 23 24 24 24 23 24 25 26 25 24 25 24 24 23 23 23 23 23 23 22 23 23 23 23 22 23 23 23 23 23 23 23 24 24 23 23 24 25 24 24 23
23 23 24 24 24 25 24 24 25 25 26 25 24 24 24 24 24 24 24 24 23 23 23 24 24 24 24 23 24 24 23 24 24 24 24 25 25 25 25 26 26 26 25
23 24 25 26 26 26 27 26 26 26 25 25 25 25 25 26 25 25 25 25 25 25 25 25 25 25 25 25 25 25 24 25 25 25 25 25 25 25 25 26 27 27 27
24 25 26 27 27 28 27 27 26 26 26 27 28 28 27 27 28 28 28 27 27 27 27 27 27 27 26 26 26 26 26 26 26 26 27 26 26 26 26 27 27 28 28
26 26 27 27 27 28 29 29 29 28 28 29 29 29 29 29 30 30 30 30 29 29 29 29 29 28 27 27 27 27 27 27 27 27 27 26 26 27 27 27 27 28 29
27 27 27 27 28 28 29 30 30 31 30 30 30 31 31 31 31 31 31 31 31 31 31 31 30 29 29 28 28 28 28 28 28 28 28 27 27 27 27 28 29 29 30
29 28 28 28 28 28 29 30 30 31 31 31 31 31 31 32 32 32 32 32 32 32 32 33 32 31 31 30 30 30 30 29 29 29 29 29 29 29 29 30 30 30 31
29 29 29 29 29 28 29 30 31 31 31 31 31 31 31 32 32 32 33 33 33 33 33 33 33 33 32 32 31 31 31 31 31 31 31 31 31 31 31 31 31 32 32
30 30 30 29 29 29 29 30 31 31 32 32 32 32 32 32 32 32 33 34 34 34 34 34 34 34 33 33 32 32 32 32 32 32 32 32 32 33 33 33 32 32 33
31 31 31 31 30 30 31 31 32 32 32 32 33 33 32 32 33 33 33 34 34 34 34 34 34 34 34 34 33 33 32 33 33 33 33 33 33 33 33 33 34 34 34
31 31 31 31 31 31 32 32 32 32 33 33 33 33 33 33 33 34 33 33 33 34 34 34 35 35 35 35 34 34 33 33 33 34 33 33 33 33 34 34 34 34 34
32 32 32 32 32 33 33 32 32 33 33 34 34 34 34 34 33 34 34 34 33 33 34 34 35 35 36 36 35 34 34 34 34 35 34 34 34 34 34 34 34 34 34
33 33 33 33 33 32 32 33 33 33 34 34 34 34 34 34 34 34 35 35 35 34 34 34 35 35 35 36 36 35 34 34 35 35 35 35 34 34 34 35 34 34 35
33 33 32 32 32 32 33 33 33 33 33 34 34 35 34 34 34 35 35 35 35 34 34 34 34 35 35 36 36 35 35 35 35 35 35 35 35 35 35 35 36 36 36
33 33 32 32 32 32 33 34 34 34 34 34 34 34 34 34 34 34 34 34 34 34 34 34 35 35 35 35 34 34 35 35 35 35 35 35 35 35 35 36 36 36 36
32 32 32 33 33 33 33 34 34 34 34 34 34 34 33 33 33 33 33 33 33 34 34 34 34 33 34 34 33 33 34 35 35 35 35 35 35 35 35 35 35 36 36
31 32 33 33 33 34 34 34 34 34 34 34 34 34 34 34 33 33 33 33 33 34 34 34 33 33 33 33 33 33 33 34 35 35 35 35 35 35 35 35 35 35 36
31 32 32 32 33 33 33 33 33 34 34 34 34 34 34 34 34 34 33 33 33 34 34 34 33 33 33 33 32 33 33 33 33 34 34 34 35 35 35 35 36 36 35

GEFSGL_500_meanwind_342.txt.gz
Wind_Speed
21 20 20 20 21 20 20 20 21 20 20 20 20 20 20 20 19 19 19 20 19 19 19 19 19 18 18 18 18 18 18 18 18 18 17 17 18 18 18 17 16 16 17
22 21 21 21 21 21 21 22 22 22 22 22 22 21 21 20 20 20 21 20 20 19 19 19 19 19 18 18 17 17 17 17 18 18 18 18 18 18 18 17 16 16 16
22 22 22 22 22 22 23 23 23 23 22 23 22 22 23 23 22 21 21 20 20 20 20 20 19 18 18 17 18 18 18 18 18 18 18 18 18 18 18 18 17 17 17
23 23 23 23 23 23 23 24 23 23 23 23 23 23 24 24 23 22 21 20 20 20 19 19 19 18 18 18 18 19 20 20 19 19 19 19 18 19 19 18 18 17 18
23 23 23 23 23 24 24 24 24 24 24 24 23 23 24 23 22 22 21 21 20 20 20 19 19 19 19 19 19 20 20 19 19 19 19 18 19 19 18 18 18 17 17
22 23 23 23 23 23 24 24 24 24 24 24 23 23 23 22 22 21 21 21 21 21 21 20 20 19 20 20 20 20 19 19 19 19 19 19 19 19 19 19 19 18 18
22 23 24 24 24 24 24 23 24 24 24 24 23 23 23 23 23 23 22 21 22 22 22 21 21 20 20 20 20 21 21 21 20 20 20 20 20 20 20 19 19 19 18
23 24 24 24 24 25 24 24 24 25 25 25 24 24 23 24 24 23 23 22 22 22 22 22 22 22 22 22 22 22 22 21 21 21 21 21 21 21 21 20 20 19 19
23 23 24 25 25 25 24 24 24 25 26 26 26 25 25 25 25 25 24 24 23 23 23 23 23 23 23 23 23 22 22 22 22 22 22 22 22 21 21 21 20 20 20
24 24 24 25 25 26 26 26 26 26 27 27 27 27 26 25 25 26 26 26 25 25 25 25 25 25 25 25 24 23 23 23 24 23 23 23 23 22 22 22 22 22 21
25 25 25 25 26 26 27 27 28 28 28 28 27 27 27 26 27 27 28 28 27 27 27 26 26 26 26 26 25 25 25 25 25 25 25 24 24 24 23 23 23 23 23
25 25 25 25 26 27 28 28 28 28 27 28 27 27 28 27 27 28 28 28 29 29 28 28 28 28 28 27 27 27 26 26 26 26 26 25 25 24 24 24 24 24 24
26 26 25 26 27 28 28 29 29 29 29 28 29 29 29 29 28 28 29 29 29 30 30 30 30 30 30 29 29 29 29 29 28 27 27 27 26 26 26 26 25 25 25
27 27 27 28 28 28 29 29 29 29 30 29 29 29 29 29 28 29 29 30 30 30 31 32 32 32 32 31 31 31 30 30 29 29 29 28 27 27 27 27 27 26 26
29 29 29 29 29 29 29 29 30 30 30 30 31 31 30 29 29 29 30 31 31 31 32 32 32 33 33 33 33 33 32 31 31 30 30 29 29 28 28 28 28 28 28
30 30 31 31 31 30 30 30 30 31 31 32 32 33 32 31 31 32 32 32 33 33 33 34 34 33 34 34 34 34 33 32 31 31 31 30 30 30 29 29 29 29 30
32 32 32 32 32 32 32 32 31 31 32 32 33 33 33 33 32 33 33 34 34 34 34 34 34 34 34 34 34 34 34 33 32 32 32 32 32 31 31 31 31 31 31
33 33 32 32 32 32 32 32 32 32 32 32 33 33 33 33 33 33 33 33 34 34 34 33 33 33 33 33 34 34 34 34 33 33 33 32 32 32 32 32 32 32 32
33 33 33 33 32 32 32 32 32 32 32 32 32 32 32 33 33 33 33 33 33 34 34 34 34 33 33 33 33 34 34 34 34 34 33 33 33 33 34 34 34 34 34
33 32 33 33 32 32 32 32 32 32 32 31 31 32 33 34 34 33 33 33 34 34 34 34 34 34 34 34 34 34 34 34 35 35 34 34 34 34 35 35 35 35 35
33 33 33 33 32 33 33 33 32 32 32 32 32 33 33 34 34 34 34 34 34 34 34 34 34 33 34 34 34 34 34 34 35 35 36 35 35 35 35 35 35 35 36
33 33 33 33 33 33 33 33 33 33 32 33 34 35 35 35 35 34 34 33 34 34 33 33 33 33 33 34 34 34 34 35 35 35 35 35 35 35 35 35 35 35 36
33 33 33 34 34 34 34 34 34 33 33 33 34 34 34 34 34 34 34 34 34 34 33 33 33 33 33 33 34 34 34 35 35 35 35 35 35 34 35 35 35 36 36
33 33 33 33 33 34 34 34 33 34 33 34 34 34 34 34 34 34 34 34 34 34 34 34 34 33 33 33 33 34 34 35 35 35 36 36 35 35 35 36 36 36 36
32 32 33 33 33 33 33 33 32 33 33 33 33 34 34 34 34 35 34 34 34 34 34 34 34 34 34 34 34 34 34 34 35 35 35 36 36 35 36 36 36 36 36
31 31 32 32 32 32 32 32 32 32 33 33 34 34 34 34 35 35 35 35 35 35 35 35 34 34 34 34 34 35 35 34 34 35 35 35 36 36 36 36 36 36 36

GEFSGL_500_meanwind_348.txt.gz
Wind_Speed
19 19 19 19 20 19 19 20 20 20 20 19 18 18 17 17 17 17 17 17 18 18 17 18 18 18 17 17 17 16 17 17 17 17 16 16 16 16 16 16 16 16 16
20 20 20 20 20 20 20 21 21 21 21 21 20 19 19 18 18 18 18 18 18 17 17 18 18 18 17 17 17 17 17 18 18 17 17 17 17 17 17 16 16 16 16
20 21 21 21 21 21 21 22 22 21 21 21 21 20 20 19 19 19 18 18 18 18 18 18 18 18 18 18 18 18 18 18 18 19 18 18 18 18 18 17 17 17 17
20 21 21 21 22 23 23 22 22 22 22 22 21 21 21 20 20 19 19 19 19 20 20 19 19 19 19 19 19 19 19 18 18 18 18 18 18 18 18 18 18 18 17
20 21 21 22 23 23 23 23 22 22 22 22 22 21 21 21 20 21 20 20 21 21 21 21 21 21 20 20 19 19 19 18 18 18 18 18 18 18 18 18 18 17 17
22 21 22 22 22 23 22 23 23 23 22 22 22 22 23 22 22 21 21 22 22 22 22 22 22 21 21 20 20 20 19 18 18 17 17 18 18 18 18 18 18 18 17
22 22 22 22 22 22 22 22 22 23 23 23 23 23 24 24 23 23 22 22 23 23 22 22 22 21 22 21 21 20 20 20 19 19 19 18 18 18 19 18 18 18 18
22 22 22 22 22 22 23 23 23 23 23 24 24 24 25 25 25 24 23 22 22 22 22 22 22 22 22 22 22 22 21 21 21 21 20 20 20 19 20 20 20 19 19
21 22 22 22 23 23 23 23 24 24 24 25 25 26 26 26 26 25 24 23 22 23 23 23 23 23 23 23 23 23 23 23 23 23 23 23 22 22 21 21 21 21 21
22 22 22 23 23 23 23 24 24 25 25 26 26 27 27 27 26 26 25 24 24 24 24 25 25 24 24 24 24 25 25 25 25 25 25 24 24 24 23 23 23 22 22
22 23 23 23 24 24 24 24 25 25 25 26 27 27 27 27 27 27 26 25 25 25 25 25 26 26 25 26 26 26 26 27 26 26 26 25 25 25 25 25 25 24 23
22 23 23 24 24 25 26 26 26 26 26 26 26 27 27 27 28 28 27 27 26 26 26 27 27 27 27 27 27 27 28 28 28 28 27 26 26 27 27 27 26 26 25
24 24 25 25 25 26 26 26 26 27 26 26 26 27 27 28 29 29 28 28 28 28 28 29 29 29 28 28 28 29 29 29 28 28 28 28 28 28 28 28 27 27 25
26 26 26 26 26 26 27 27 26 26 27 27 27 28 29 29 30 30 29 29 29 29 29 29 29 29 29 29 29 30 30 29 30 29 29 29 29 29 28 27 27 27 27
27 27 27 27 27 27 28 28 28 28 28 28 28 29 29 29 30 31 30 29 30 30 30 30 30 30 30 30 30 30 30 30 30 31 30 30 30 30 29 28 28 28 28
28 28 28 28 28 28 28 29 29 29 29 29 29 30 30 30 30 31 31 31 30 31 31 31 31 31 31 31 31 31 30 30 31 31 31 31 31 30 30 29 29 29 29
30 30 30 30 30 30 30 30 30 31 31 30 30 30 31 31 31 31 32 31 31 32 32 32 32 32 31 31 32 32 32 31 31 31 32 32 31 31 30 30 30 30 30
32 32 31 31 31 31 31 31 31 31 32 32 32 32 32 32 32 32 32 32 32 32 31 32 32 32 32 32 32 33 33 33 32 32 33 33 33 32 32 32 32 32 31
33 32 32 32 32 32 32 33 33 33 33 33 33 33 33 33 32 33 33 33 31 31 31 32 32 32 33 33 33 33 33 33 33 33 33 34 34 34 33 33 33 33 33
32 32 32 32 32 33 33 33 33 33 33 33 33 33 33 33 33 33 33 33 32 31 31 32 33 33 33 33 33 34 34 34 34 34 33 33 34 35 35 34 34 34 34
32 31 31 32 32 33 33 33 34 34 33 33 33 33 33 33 33 33 33 33 33 33 33 33 33 34 34 33 34 34 34 34 35 34 34 33 34 35 35 35 35 35 35
31 31 32 32 32 33 33 33 33 34 34 33 33 33 33 33 33 33 34 34 35 35 35 35 35 35 34 34 35 35 35 35 35 35 34 34 34 34 35 35 35 35 35
30 30 31 31 32 32 33 33 34 34 34 34 34 34 33 33 33 33 34 34 35 35 35 35 35 35 35 34 33 34 34 35 34 34 35 35 35 35 34 35 35 35 36
30 30 30 31 31 32 33 33 34 34 34 34 34 33 33 33 33 33 33 33 34 35 35 34 34 33 34 34 34 34 34 35 35 35 35 35 36 36 35 35 35 35 36
30 31 31 31 32 32 32 32 32 32 33 33 33 32 32 32 32 32 33 33 34 34 34 34 33 33 34 35 35 35 35 35 35 35 36 36 36 36 36 36 36 36 36
31 31 31 32 32 32 31 32 32 32 32 32 32 32 32 32 32 33 33 33 33 33 33 33 33 34 34 34 34 34 35 35 35 36 36 36 36 36 36 36 36 36 36